FENGYUN 1C DEB

Satellite information

Favourite Embed

Satellite Type and Status

DEBRISIN ORBIT

Key statistics

Satellite FENGYUN 1C DEB at a glance.

Uptime

9659

Days in orbit

Revolutions

≈ 14.4

Per day

Orbit

SSO

Sun Synchronous Orbit

Inclination

99.0

Latest

Satellite identification and parameters

Extended collection of information and parameters for FENGYUN 1C DEB.

Object identification

Identified? True

Debris? True

Object name: FENGYUN 1C DEB

International designator: 1999-025BSR

Object number (NORAD): 31385

Object ID (CCSDS): 31385

Country: PEOPLES REPUBLIC OF CHINA (PRC)

Current information (Y/N): Y

RCS size: SMALL

Orbital parameters

Period: 99.732 minutes

Inclination: 98.9559 deg

SMA: 7123.898 km

Apoapsis: 840.907 km

Periapsis: 650.62 km

RAAN: 18.2528 deg

Eccentricy: 0.0133556

Argument of periapsis: 220.71 deg

Mean anomaly: 319.414 deg

Mean motion: 14.4386365 rev/day

Mean motion (dot): 0.0000119 rev/day2

B* drag term: 0.00032784 1/REarth

Two-line elements (TLE)

Creation date: Oct. 18, 2025, 8:56 a.m.

Reference frame: TEME

Reference center: EARTH

Epoch: Oct. 18, 2025, 12:19 a.m. UTC

TLE line 0: 0 FENGYUN 1C DEB

TLE line 1: 1 31385U 99025BSR 25291.01331183 .00001190 00000-0 32784-3 0 9992

TLE line 2: 2 31385 98.9559 18.2528 0133556 220.7100 319.4140 14.43863650978105

Live tracking on map

Real-time ground track for satellite FENGYUN 1C DEB.

In-orbit conjunctions

A list of the most updated potential collisions computed for object FENGYUN 1C DEB.

Target Orbit TCA Probability of collision Miss distance Type
SL-16 R/B LEO 2025-01-18 04:50:28 0.0003106758 360.0 (m) ROCKET BODY
FENGYUN 1C DEB SSO 2024-11-11 18:35:20 0.000182923 717.0 (m) DEBRIS

Associated space launch

Chinese polar orbiting meteorological satellite

FENGYUN 1C DEB was lifted into orbit during the mission ‘Long March 4B | Feng Yun 1C’, on board a Long March 4B space rocket.

The launch took place on May 10, 1999, 1:33 a.m. from Launch Complex 7.

For more information about the launch, click the button.

Launch to space Long March 4B | Feng Yun 1C
Long March 4B | Feng Yun 1C

Agency: N/A

Status: Launch Successful

Launch date: May 10, 1999, 1:33 a.m. UTC

Rocket: Long March 4B

Launch pad: Launch Complex 7

Location: Taiyuan Satellite Launch Center, People's Republic of China

...

Latest news about this satellite

There are no fresh news available about this satellite. Check back as we update our databases every day.


Newsletter sign-up

Weekly statistics, charts and insights to help you stay on top of the space industry.